[[{"header":{"parameterUnit":"m.s-1","parameterCategory":1,"la1":30.2991,"la2":30.254,"lo1":-89.0895,"lo2":-89.0444,"dy":0.0017,"dx":0.0017,"nx":28,"ny":28,"refTime":"2024-04-05T03:00:00:Z","depth":0,"parameterNumber":2,"parameterNumberName":"U-component_of_WINDS"},"data":[0,0,0,0,0,0,0,0,0,0,0,0,0,0,0,0,0,0,0,0,0,0,0,0,0,0,0,0,0,0,0,0,0,0,0,0,0,0,0,0,0,0,0,0,0,0,0,0,0,0,0,0,0,0,0,0,0,0,2.361,2.3611,0,2.3673,2.3674,2.3674,2.3703,2.3703,2.3703,2.3703,2.3769,2.3771,2.3773,0,0,0,0,0,0,0,0,0,0,0,0,0,2.3519,2.3521,2.361,2.3611,2.3611,2.3673,2.3674,2.3674,2.3703,2.3703,2.3703,2.3703,2.3769,2.3771,2.3773,0,0,0,0,0,0,0,0,0,0,0,0,0,2.3568,2.3521,2.361,2.3633,2.3636,2.3673,2.3674,2.3675,2.3703,2.3703,2.3703,2.3703,2.3768,2.377,2.3773,2.3792,0,0,2.3782,2.3783,0,0,0,0,0,0,0,0,2.3565,2.3571,2.3629,2.3632,2.3635,2.368,2.3666,2.3714,2.3703,2.3678,2.3703,2.3703,2.374,2.3745,2.3757,2.3795,2.3798,2.3782,2.3783,2.3785,2.3785,0,0,0,0,0,0,0,2.3562,2.3569,2.3635,2.363,2.3633,2.3642,2.3649,2.3675,2.3708,2.368,2.3682,2.3689,2.3741,2.3754,2.3759,2.3799,2.3782,2.3784,2.3786,2.3787,2.386,2.3861,0,0,0,0,0,0,2.3554,2.3566,2.3633,2.3637,2.3599,2.3644,2.3651,2.3666,2.3708,2.3715,2.3689,2.369,2.3749,2.3755,2.3761,2.3788,2.3785,2.3787,2.3789,2.386,2.386,2.3861,0,0,0,0,0,0,2.3552,2.356,2.363,2.3602,2.3612,2.3645,2.3661,2.3667,2.368,2.3715,2.3722,2.3696,2.375,2.3757,2.3785,2.3791,2.3788,2.3791,2.386,2.386,2.3861,2.3841,0,0,0,0,0,0,2.3549,2.3559,2.3565,2.3602,2.3613,2.3651,2.3661,2.3668,2.3684,2.3686,2.3723,2.3729,2.375,2.3781,2.3788,2.3794,2.3793,2.3859,2.386,2.386,2.3841,2.3841,2.384,0,0,0,0,0,2.3546,2.3557,2.3565,2.3573,2.3621,2.3652,2.3658,2.3681,2.3684,2.3692,2.3715,2.3728,2.3789,2.3783,2.3791,2.3799,2.3859,2.386,2.386,2.3841,2.3841,2.384,0,0,0,0,0,0,2.3519,2.3562,2.3572,2.3594,2.3619,2.3656,2.3666,2.3679,2.3705,2.3705,2.3734,2.3742,2.3768,2.3787,2.3779,2.3822,2.3826,2.3828,2.3808,2.3808,2.3808,2.3802,2.3795,0,0,0,0,0,2.3516,2.3536,2.3573,2.3589,2.3601,2.3632,2.3646,2.3662,2.3689,2.37,2.3725,2.3752,2.3778,2.3794,2.3819,2.3845,2.3855,2.3854,2.3854,2.3853,2.3855,2.3873,2.3874,2.3863,2.3863,2.3863,0,0,2.3509,2.3535,2.3546,2.3584,2.3606,2.3628,2.364,2.3662,2.3679,2.3704,2.3731,2.3752,2.3784,2.3811,2.3824,2.3827,2.3861,2.3854,2.3853,2.3855,2.3874,2.3875,2.3875,2.3863,2.3863,2.3863,0,0,2.3508,2.3529,2.3546,2.3568,2.36,2.3621,2.3626,2.3662,2.3676,2.3705,2.3724,2.3746,2.3789,2.3812,2.3829,2.3842,2.3856,2.385,2.3847,2.3864,2.3865,2.3866,2.3872,2.3874,2.3851,2.3851,2.3851,0,2.3496,2.3528,2.3553,2.3575,2.3593,2.3617,2.3636,2.3656,2.3695,2.3708,2.3711,2.3767,2.379,2.3825,2.3828,2.3841,2.3849,2.3845,2.3862,2.3864,2.3865,2.3871,2.3873,2.385,2.3851,2.3851,2.3851,0,2.3513,2.3535,2.3546,2.3584,2.3603,2.3623,2.3653,2.367,2.3685,2.3707,2.3738,2.3767,2.38,2.381,2.3825,2.3848,2.3849,2.3857,2.3861,2.3865,2.3871,2.3874,2.3849,2.3849,2.385,2.385,0,0,2.3494,2.3548,2.3551,2.357,2.3609,2.3628,2.3651,2.3684,2.3699,2.3726,2.3747,2.3785,2.3794,2.3814,2.3832,2.3847,2.3858,2.3854,2.3855,2.3855,2.3888,2.3882,2.3884,2.3868,2.3869,2.3869,2.3886,0,2.3499,2.3539,2.3565,2.3596,2.3619,2.3644,2.3665,2.3693,2.3714,2.3738,2.3763,2.379,2.3798,2.3811,2.3827,2.3853,2.3866,2.3853,2.389,2.3891,2.3881,2.3888,2.388,2.3895,2.3889,2.3889,2.3889,0,2.3509,2.3537,2.357,2.3611,2.3621,2.3639,2.3673,2.3695,2.3728,2.3743,2.3767,2.3787,2.3815,2.3818,2.3858,2.3849,2.3867,2.3882,2.3884,2.3888,2.389,2.3893,2.39,2.3902,2.3893,2.3893,2.3893,0,2.3494,2.3539,2.3566,2.3581,2.3628,2.3641,2.3661,2.3694,2.3714,2.3744,2.3757,2.379,2.3809,2.3835,2.3864,2.3863,2.3903,2.3908,2.3918,2.3917,2.3924,2.3923,2.3934,2.3935,2.3935,2.3935,2.3935,0,2.3497,2.3517,2.356,2.3576,2.3601,2.3632,2.3655,2.3678,2.3708,2.3732,2.3756,2.3777,2.3814,2.3841,2.3864,2.3896,2.3904,2.3918,2.3924,2.3916,2.3914,2.3928,2.3928,2.3935,2.3935,2.3935,2.3935,0,2.3482,2.3512,2.3543,2.3586,2.3598,2.3614,2.3652,2.367,2.3695,2.3724,2.3733,2.3771,2.3805,2.3837,2.3881,2.3897,2.3929,2.3936,2.3917,2.3921,2.3929,2.3928,2.395,2.3955,2.3951,2.3951,2.3951,0,2.3482,2.3498,2.3544,2.3561,2.3581,2.3608,2.3628,2.366,2.3681,2.3722,2.3736,2.3772,2.3801,2.3854,2.3887,2.3923,2.3932,2.3937,2.3937,2.3929,2.3933,2.3932,2.3935,2.3936,2.3936,2.3935,2.3935,0,2.3479,2.3494,2.3521,2.3556,2.3579,2.3607,2.3637,2.365,2.3688,2.371,2.3745,2.3768,2.3815,2.3851,2.389,2.3914,2.3932,2.3936,2.394,2.3932,2.392,2.3928,2.3916,2.3934,2.3935,2.3935,2.3935,2.3935,2.3473,2.3489,2.3525,2.3556,2.3582,2.3609,2.363,2.3657,2.3686,2.3726,2.3745,2.378,2.3817,2.3873,2.3896,2.3926,2.393,2.3936,2.3938,2.3939,2.3938,2.3916,2.3934,2.3934,2.3934,2.3934,2.3934,0,2.3472,2.3497,2.3525,2.3566,2.3591,2.3606,2.3641,2.3661,2.3692,2.3725,2.3754,2.3796,2.3832,2.3869,2.3908,2.3925,2.3934,2.3934,2.3933,2.3939,2.3931,2.3924,2.3926,2.3926,2.3926,2.3926,2.3926,2.3926,2.3474,2.3504,2.3524,2.3568,2.3594,2.3628,2.3647,2.3674,2.37,2.3746,2.3775,2.38,2.3835,2.3877,2.3912,2.3922,2.3936,2.3933,2.3946,2.3938,2.3939,2.3939,2.3933,2.3936,2.3936,2.3951,2.3951,2.3951]},{"header":{"parameterUnit":"m.s-1","parameterCategory":1,"la1":30.2991,"la2":30.254,"lo1":-89.0895,"lo2":-89.0444,"dy":0.0017,"dx":0.0017,"nx":28,"ny":28,"refTime":"2024-04-05T03:00:00:Z","depth":0,"parameterNumber":3,"parameterNumberName":"V-component_of_WINDS"},"data":[0,0,0,0,0,0,0,0,0,0,0,0,0,0,0,0,0,0,0,0,0,0,0,0,0,0,0,0,0,0,0,0,0,0,0,0,0,0,0,0,0,0,0,0,0,0,0,0,0,0,0,0,0,0,0,0,0,0,-0.9619,-0.9618,0,-0.9554,-0.9553,-0.9552,-0.9661,-0.9665,-0.9669,-0.9672,-0.9601,-0.9596,-0.959,0,0,0,0,0,0,0,0,0,0,0,0,0,-0.9836,-0.9831,-0.9619,-0.9618,-0.9618,-0.9554,-0.9553,-0.9552,-0.9661,-0.9665,-0.967,-0.9674,-0.9603,-0.9596,-0.959,0,0,0,0,0,0,0,0,0,0,0,0,0,-0.9753,-0.983,-0.9619,-0.9664,-0.9668,-0.9554,-0.9553,-0.9552,-0.966,-0.9665,-0.9671,-0.9676,-0.9605,-0.9597,-0.9589,-0.9427,0,0,-0.9564,-0.9561,0,0,0,0,0,0,0,0,-0.9757,-0.9745,-0.9658,-0.9661,-0.9665,-0.9622,-0.9603,-0.951,-0.9658,-0.9663,-0.9672,-0.9679,-0.9603,-0.9595,-0.9571,-0.9423,-0.942,-0.9563,-0.9559,-0.9555,-0.9553,0,0,0,0,0,0,0,-0.9763,-0.9748,-0.9593,-0.9657,-0.9661,-0.9687,-0.9681,-0.9586,-0.9602,-0.9663,-0.967,-0.9661,-0.9606,-0.9578,-0.957,-0.9419,-0.9564,-0.9557,-0.9552,-0.9548,-0.9137,-0.9131,0,0,0,0,0,0,-0.9764,-0.9752,-0.9595,-0.9591,-0.9726,-0.9678,-0.9672,-0.963,-0.9603,-0.9605,-0.9657,-0.9667,-0.9589,-0.9579,-0.9568,-0.9376,-0.9555,-0.9548,-0.9543,-0.9143,-0.9136,-0.9129,0,0,0,0,0,0,-0.9768,-0.9749,-0.9598,-0.9674,-0.9657,-0.9669,-0.962,-0.9625,-0.9598,-0.9599,-0.9602,-0.9626,-0.9593,-0.9579,-0.9462,-0.9375,-0.9544,-0.9537,-0.915,-0.9141,-0.9132,-0.8992,0,0,0,0,0,0,-0.9774,-0.975,-0.9689,-0.9672,-0.9652,-0.9493,-0.9615,-0.962,-0.9584,-0.9597,-0.9571,-0.9572,-0.9596,-0.9473,-0.9453,-0.9367,-0.953,-0.9158,-0.9146,-0.9135,-0.9004,-0.8979,-0.8957,0,0,0,0,0,-0.9781,-0.9651,-0.9685,-0.9665,-0.9576,-0.9488,-0.9477,-0.9509,-0.9577,-0.9515,-0.9516,-0.9573,-0.9388,-0.946,-0.9439,-0.9349,-0.9163,-0.9149,-0.9136,-0.9014,-0.8984,-0.8958,0,0,0,0,0,0,-0.9655,-0.9649,-0.9687,-0.9547,-0.9518,-0.9507,-0.943,-0.9475,-0.9424,-0.9438,-0.948,-0.9473,-0.9346,-0.9336,-0.9416,-0.9191,-0.9287,-0.9268,-0.9202,-0.9173,-0.915,-0.9154,-0.9524,0,0,0,0,0,-0.9611,-0.9541,-0.9539,-0.9416,-0.94,-0.9417,-0.938,-0.9408,-0.9378,-0.9365,-0.9357,-0.9325,-0.926,-0.9216,-0.9157,-0.9004,-0.9,-0.8932,-0.8909,-0.8889,-0.8872,-0.8791,-0.876,-0.9084,-0.9084,-0.9084,0,0,-0.9519,-0.9508,-0.946,-0.9391,-0.9371,-0.9296,-0.9405,-0.9322,-0.9266,-0.9352,-0.9241,-0.9234,-0.9201,-0.9065,-0.9005,-0.9053,-0.8782,-0.8872,-0.8857,-0.885,-0.8774,-0.8743,-0.8716,-0.9075,-0.9076,-0.9078,0,0,-0.9314,-0.9298,-0.9194,-0.9172,-0.9142,-0.9155,-0.913,-0.9112,-0.9111,-0.9001,-0.9064,-0.8999,-0.8886,-0.886,-0.8831,-0.8618,-0.8668,-0.8598,-0.8475,-0.8395,-0.8369,-0.8347,-0.827,-0.8242,-0.8581,-0.8581,-0.858,0,-0.9202,-0.9094,-0.9134,-0.9046,-0.9014,-0.909,-0.8984,-0.8961,-0.8911,-0.8887,-0.8942,-0.8803,-0.8786,-0.8645,-0.8593,-0.8568,-0.854,-0.86,-0.837,-0.8348,-0.8328,-0.8255,-0.8226,-0.8572,-0.8573,-0.8574,-0.8575,0,-0.8959,-0.8882,-0.8802,-0.8754,-0.8713,-0.8616,-0.8641,-0.8594,-0.8626,-0.8633,-0.852,-0.8503,-0.8441,-0.841,-0.844,-0.8273,-0.8304,-0.8364,-0.8461,-0.8288,-0.822,-0.8192,-0.856,-0.8563,-0.8566,-0.8568,0,0,-0.8669,-0.8647,-0.8616,-0.8596,-0.8569,-0.851,-0.8417,-0.8359,-0.8317,-0.8281,-0.8204,-0.8108,-0.8163,-0.8131,-0.8159,-0.8089,-0.7921,-0.8158,-0.8158,-0.8113,-0.7736,-0.769,-0.7657,-0.7955,-0.795,-0.7946,-0.7739,0,-0.8464,-0.8305,-0.8339,-0.8183,-0.8112,-0.8185,-0.8104,-0.8078,-0.8083,-0.8023,-0.8028,-0.7959,-0.8038,-0.8019,-0.7954,-0.7955,-0.7845,-0.7971,-0.7882,-0.7878,-0.7886,-0.7622,-0.7572,-0.7378,-0.7712,-0.7708,-0.7705,0,-0.8202,-0.8158,-0.7995,-0.798,-0.7952,-0.7879,-0.7828,-0.7771,-0.7743,-0.7751,-0.7717,-0.7758,-0.7666,-0.7766,-0.7638,-0.7723,-0.7689,-0.7684,-0.7678,-0.7669,-0.7779,-0.7604,-0.7316,-0.7286,-0.7663,-0.7667,-0.767,0,-0.8006,-0.7906,-0.7796,-0.7776,-0.7756,-0.7703,-0.7692,-0.767,-0.7633,-0.7589,-0.7565,-0.751,-0.7479,-0.7436,-0.7461,-0.7532,-0.7329,-0.7431,-0.7332,-0.7331,-0.7284,-0.7286,-0.6985,-0.7265,-0.7265,-0.7266,-0.7266,0,-0.7772,-0.7669,-0.7707,-0.7639,-0.7526,-0.7567,-0.7453,-0.7451,-0.7431,-0.7363,-0.7423,-0.7357,-0.7396,-0.7334,-0.7353,-0.7244,-0.723,-0.7234,-0.724,-0.7227,-0.7226,-0.7204,-0.7217,-0.7258,-0.726,-0.7261,-0.7263,0,-0.7533,-0.7554,-0.7439,-0.743,-0.7426,-0.7342,-0.7335,-0.7271,-0.7281,-0.7195,-0.7177,-0.7191,-0.7121,-0.7144,-0.7067,-0.7081,-0.6942,-0.6967,-0.6952,-0.6957,-0.6857,-0.6865,-0.6529,-0.6486,-0.6795,-0.6792,-0.6789,0,-0.7381,-0.7304,-0.7288,-0.7247,-0.7233,-0.7166,-0.713,-0.7167,-0.7126,-0.709,-0.703,-0.6966,-0.6916,-0.68,-0.6804,-0.6746,-0.6769,-0.6655,-0.676,-0.675,-0.6765,-0.6769,-0.6761,-0.6633,-0.6629,-0.6626,-0.6624,0,-0.7109,-0.7124,-0.707,-0.7018,-0.6973,-0.6934,-0.6901,-0.6864,-0.69,-0.685,-0.678,-0.6742,-0.6666,-0.66,-0.6549,-0.6537,-0.6585,-0.6592,-0.6565,-0.6551,-0.6545,-0.6546,-0.6893,-0.6598,-0.6601,-0.6603,-0.6604,-0.6605,-0.6908,-0.6843,-0.6822,-0.6759,-0.6739,-0.6706,-0.6646,-0.665,-0.6592,-0.6534,-0.656,-0.6478,-0.6454,-0.639,-0.6371,-0.6308,-0.6351,-0.6314,-0.6304,-0.6293,-0.628,-0.6557,-0.6299,-0.63,-0.63,-0.6301,-0.6301,0,-0.6639,-0.663,-0.6571,-0.6524,-0.6474,-0.6527,-0.6493,-0.6447,-0.6376,-0.635,-0.63,-0.622,-0.6158,-0.6157,-0.6099,-0.6048,-0.6069,-0.6032,-0.6035,-0.6031,-0.6245,-0.6273,-0.6016,-0.6016,-0.6016,-0.6016,-0.6016,-0.6016,-0.6493,-0.6385,-0.6398,-0.6281,-0.6272,-0.6194,-0.617,-0.6141,-0.612,-0.6028,-0.5977,-0.5978,-0.5962,-0.5904,-0.5849,-0.5851,-0.5826,-0.5779,-0.5789,-0.5988,-0.6016,-0.6043,-0.607,-0.5774,-0.5774,-0.558,-0.5578,-0.5577]}]]